Regional Weather Roundup
Issued by NWS

Home | Current Version | Previous Version | Graphics & Text | Print | Product List | Glossary Off
Versions: 1 2 3 4 5 6 7 8 9 10 11 12 13 14 15 16 17 18 19 20 21 22 23 24 25 26 27 28 29 30 31 32 33 34 35 36 37 38 39 40 41 42 43 44 45 46 47 48 49 50

850
ASUS43 KTOP 300308
RWRKS

WEATHER ROUNDUP FOR KANSAS
NATIONAL WEATHER SERVICE GOODLAND KS
1000 PM CDT MON AUG 29 2016

NOTE:  "FAIR" INDICATES FEW OR NO CLOUDS BELOW 12,000 FEET WITH NO
SIGNIFICANT WEATHER AND/OR OBSTRUCTIONS TO VISIBILITY.

KSZ001>006-013>018-027>032-041>047-300400-
NORTHWEST KANSAS

CITY           SKY/WX    TMP DP  RH WIND       PRES   REMARKS
GOODLAND       MOCLDY    64  60  87 CALM      30.27R
HAYS           CLOUDY    68  61  77 CALM      30.20R
HILL CITY      CLOUDY    69  66  90 N5        30.22R
RUSSELL        PTCLDY    68  68 100 NE7       30.17S
$$

KSZ061>065-074>080-084>089-300400-
SOUTHWEST KANSAS

CITY           SKY/WX    TMP DP  RH WIND       PRES   REMARKS
DODGE CITY     CLOUDY    68  66  93 CALM      30.21R
ELKHART          N/A     67  61  81 E6          N/A
GARDEN CITY    CLOUDY    68  65  90 E8        30.23R
GREAT BEND     CLOUDY    70  63  78 SE3       30.18R
LIBERAL        MOCLDY    70  64  83 N5        30.24R
PRATT          PTCLDY    67  65  94 E6        30.19R
$$

KSZ066>073-081>083-090>101-300400-
SOUTHEAST KANSAS

CITY           SKY/WX    TMP DP  RH WIND       PRES   REMARKS
CHANUTE        CLOUDY    77  70  79 SW10      30.16R THUNDER
COFFEYVILLE    LGT RAIN  73  71  93 NE8       30.13R
HUTCHINSON     CLOUDY    73  68  84 NE9       30.17R
MEDICINE LODGE   N/A     72  69  90 N5        30.16R
NEWTON         CLOUDY    75  70  84 E6        30.17R
PARSONS        LGT RAIN  73  70  90 N5        30.15S
WICHITA INTL   CLOUDY    77  68  73 SE3       30.15R
WICHITA JABRA  MOCLDY    75  71  87 CALM      30.16R
WICHITA MCCONL CLOUDY    80  68  66 SE2       30.16R
WINFIELD       CLOUDY    81  70  69 NE3       30.15R
$$

KSZ007>012-019>026-033>040-048>060-102>105-300400-
NORTHEAST KANSAS

CITY           SKY/WX    TMP DP  RH WIND       PRES   REMARKS
CONCORDIA      PTCLDY    70  67  90 NE5       30.19R
EMPORIA        PTCLDY    76  73  91 NE3       30.16R
LAWRENCE       CLOUDY    77  75  93 CALM      30.15R
MANHATTAN      PTCLDY    74  68  81 CALM      30.15R
MARYSVILLE     RAIN      72  70  94 N6        30.19S
OLATHE IND     CLOUDY    77  74  90 CALM      30.16R
OLATHE EXE     CLOUDY    79  71  76 CALM      30.16R
SALINA         PTCLDY    73  71  93 NW5       30.17R
TOPEKA BILLARD MOCLDY    78  74  87 CALM      30.15R
TOPEKA FORBES  MOCLDY    79  72  79 CALM      30.16R
$$




USA.gov is the U.S. government's official web portal to all federal, state and local government web resources and services.